Location: Bats
(43.6587°N, 0.4584°W)
Time: 07:14:34
(UTC+00:00)

Cosmos 1603 - Pass Details

Date: 12 January 2026
Orbit: 831 x 857 km, 71.0° (Epoch: 10 February)

Event Time Altitude Azimuth Distance (km) Brightness Sun altitude
Rises 18:44:39 0° 208° (SSW) 3,391 7.4 -20.7°
Reaches altitude 10° 18:47:06 10° 209° (SSW) 2,456 6.6 -21.2°
Maximum altitude 18:52:44 77° 296° (WNW) 867 3.8 -22.2°
Enters shadow 18:56:09 25° 19° (NNE) 1,640 4.9 -22.8°
